Location: Caltech
(34.1382°N, 118.1253°W)
Time: 19:11:41
(UTC-08:00)

Daily predictions for brighter satellites

Satellite Brightness Start Highest point End
(mag) Time Altitude Azimuth Time Altitude Azimuth Time Altitude Azimuth
Cosmos 1725 Rocket 4.1 17:51:02 10° N 17:57:17 62° E 18:03:27 10° SSE
Iridium 2 3.8 17:56:55 10° N 18:00:40 52° E 18:04:23 10° SSE
METEOR-M 4.3 17:55:26 10° S 18:00:47 82° WSW 18:06:09 10° NNW
Cosmos 2123 Rocket 4.1 17:59:06 10° S 18:05:18 84° W 18:11:30 10° N
Landsat 4 3.7 18:02:38 10° NNE 18:06:21 64° ESE 18:10:03 10° S
NOSS 3-2 (A) 3.4 18:03:04 10° SSW 18:08:50 79° ESE 18:15:10 10° NNE
Meteor 2-6 Rocket 4.5 18:04:24 10° NNW 18:09:49 74° W 18:15:18 10° S
Shenzhou-11 Module 3.6 18:09:46 10° NW 18:12:11 22° NNE 18:14:29 11° ENE
ATLAS 3B R/B 3.4 18:05:39 10° SW 18:12:52 60° WNW 18:19:50 10° NNE
MOS 1-B Rocket 4.1 18:07:16 10° SSE 18:14:10 75° ENE 18:20:09 10° N
Tiangong 2 3.2 18:12:48 10° NW 18:14:58 17° N 18:17:07 10° NE
YAOGAN 1 3.5 18:15:07 10° S 18:19:20 53° W 18:23:35 10° NNW
FREGAT/IRIS 3.7 18:19:45 10° SE 18:22:08 22° ENE 18:24:32 10° NNE
Okean 1-7 3.9 18:20:54 10° NNW 18:25:12 55° W 18:29:29 10° S
Envisat 4.3 18:23:13 10° ESE 18:26:46 19° ENE 18:30:20 10° NNE
Cosmos 1867 4.2 18:23:38 10° NW 18:29:01 61° WSW 18:34:21 10° SSE
Cosmos 1733 Rocket 3.0 18:24:58 10° S 18:29:12 59° E 18:33:27 10° NNE
Cosmos 2219 Rocket 2.2 18:24:54 10° NNW 18:30:36 86° ENE 18:36:15 10° SSE
H-2A R/B 2.8 18:27:51 10° SSE 18:31:41 57° ENE 18:35:32 10° N
HJ-1C 4.5 18:30:10 10° SE 18:33:00 24° ENE 18:35:51 10° NNE
Lacrosse 5 2.7 18:28:40 10° NNW 18:33:11 31° NE 18:36:12 18° E
Cosmos 1371 Rocket 3.9 18:30:01 10° NNW 18:35:17 77° ENE 18:40:35 10° SSE
Cosmos 2227 Rocket 2.1 18:29:54 10° SSW 18:35:33 83° ESE 18:41:14 10° NNE
GPS 2-04 Rocket1 3.4 18:34:53 10° W 18:38:28 43° SSW 18:41:19 14° SE
DELTA 2 R/B (1) 3.8 18:33:00 10° WNW 18:38:32 72° SSW 18:43:33 13° ESE
CZ-2D R/B 4.3 18:39:01 20° E 18:40:16 24° ENE 18:43:26 10° NNE
Cosmos 2237 Rocket 2.3 18:34:50 10° N 18:40:18 49° ENE 18:45:43 10° SE
SL-16 R/B 3.4 18:36:49 10° N 18:40:55 20° ENE 18:42:03 19° ENE
NOSS 0 Rocket 3.9 18:39:25 10° NNW 18:45:38 80° ENE 18:51:50 10° SSE
SeaSat 1 2.9 18:43:00 12° SE 18:47:12 39° ENE 18:51:47 10° N
Cosmos 2297 Rocket 2.2 18:44:34 10° SSW 18:50:12 86° WNW 18:55:54 10° NNE
SPOT 3 Rocket 4.0 18:45:19 10° S 18:50:26 65° WSW 18:55:37 10° NNW
Abrixas rocket 2.0 18:48:36 10° NW 18:51:46 68° NE 18:52:39 42° ESE
ALOS 4.1 18:47:44 10° SSW 18:51:56 34° W 18:56:10 10° NNW
USA 215 3.8 18:49:01 10° NE 18:55:23 57° NW 19:01:43 10° WSW
Cosmos 1812 2.7 18:52:54 10° N 18:56:43 54° E 19:00:29 10° SSE
Cosmos 2233 Rocket 4.4 18:51:08 10° NNW 18:57:22 68° W 19:03:32 10° S
DNEPR-1 R/B 4.3 18:53:18 10° SW 18:57:24 49° WNW 19:01:32 10° NNE
ARGOS Delta rocket 4.0 18:53:12 10° NNE 18:57:56 47° E 19:02:23 10° S
Meteor 1-25 Rocket 4.1 18:52:33 10° S 18:58:00 61° E 19:03:28 10° NNE
Okean 3 3.6 18:54:12 10° N 18:58:14 47° E 19:02:15 10° SSE
Sich 1 Rocket 4.0 18:54:53 10° SSE 18:59:04 38° E 19:01:51 19° NNE
NOSS 3-2 (C) 3.9 18:53:46 10° SW 18:59:32 61° NW 19:05:53 10° NNE
Cosmos 405 3.7 19:00:18 10° SSW 19:03:43 53° W 19:07:09 10° N
Cosmos 2056 Rocket 3.8 18:59:29 10° NNW 19:04:54 72° WSW 19:10:17 10° S
Cosmos 2333 Rocket 3.1 19:03:11 10° NNW 19:08:38 51° WSW 19:14:03 10° S
Cosmos 1464 Rocket 3.9 19:03:31 10° N 19:09:34 60° E 19:15:36 10° SSE
Cosmos 1452 Rocket 3.7 19:06:24 10° N 19:11:29 47° ENE 19:12:43 39° ESE
ERS-2 3.0 19:09:03 10° S 19:12:38 50° W 19:16:14 10° NNW
Cosmos 2082 4.3 19:09:28 10° SW 19:14:58 58° WNW 19:20:31 10° NNE
Cosmos 1048 Rocket 4.1 19:12:28 10° S 19:17:40 54° ESE 19:19:16 39° NE
Cosmos 1378 Rocket 3.5 19:14:16 10° N 19:18:38 61° E 19:18:49 60° E
Cosmos 1072 Rocket 4.4 19:12:40 10° N 19:18:53 80° E 19:25:10 10° S
OAO 2 Rocket 3.5 19:17:57 10° SW 19:22:41 49° SSE 19:23:02 47° SE
Geosat 4.1 19:19:43 10° NNE 19:24:45 73° WNW 19:29:44 10° SSW
USA 267 4.0 19:24:53 30° NE 19:25:48 32° NNE 19:31:24 10° NNW
SJ-6B 3.2 19:26:29 17° S 19:29:15 58° W 19:32:58 10° NNW
SL-8 R/B 4.1 19:28:51 10° WSW 19:33:33 59° NW 19:34:21 51° N
Cosmos 1420 Rocket 4.0 19:30:46 10° N 19:35:30 61° NE 19:35:30 61° NE
Cosmos 1633 4.1 19:35:10 10° SSW 19:38:25 34° W 19:40:41 17° NNW
CENTAUR R/B 2.5 19:32:47 10° SW 19:38:38 79° WNW 19:42:17 28° NNE
Cosmos 2034 Rocket 3.9 19:35:52 10° N 19:42:16 82° E 19:48:38 10° S
Iridium 4 Rocket 4.1 19:41:35 10° NNW 19:46:24 51° W 19:50:46 10° SSW
Tiangong 2 4.3 19:49:33 10° NW 19:49:44 11° NW 19:49:44 11° NW
Cosmos 1816 Rocket 4.4 19:51:57 10° S 19:58:18 89° W 20:04:43 10° N
Resurs 01 Rocket 3.8 20:01:42 17° NNW 20:01:42 17° NNW 20:02:47 10° NNW
Envisat 4.1 20:00:49 11° SSW 20:05:26 41° W 20:10:14 10° NNW
Lacrosse 5 3.3 20:11:33 10° WNW 20:15:27 34° WSW 20:15:27 34° WSW
SL-16 R/B 3.3 20:19:50 10° NNW 20:24:00 42° WNW 20:24:00 42° WNW
